OKEAN-0
1 25860U 99039A 11020.69279207 .00000076 00000-0 19055-4 0 2087
2 25860 097.8633 351.3767 0001878 087.0915 273.0504 14.73702977618930
NOAA-16
1 26536U 00055A 11020.32519910 .00000212 00000-0 13985-3 0 1587
2 26536 099.1565 047.7581 0011291 088.4012 271.8452 14.12595476532483
NOAA-17
1 27453U 02032A 11020.36544155 .00000280 00000-0 13920-3 0 1546
2 27453 098.4020 066.7198 0011095 218.8502 141.1885 14.24229939445618
NOAA-18
1 28654U 05018A 11020.44004220 -.00000169 00000-0 -68712-4 0 6396
2 28654 098.9784 331.3703 0014548 158.0712 202.1096 14.11426896292081
NOAA-19
1 33591U 09005A 11020.40468848 .00000059 00000-0 56929-4 0 8348
2 33591 098.8126 323.1558 0014675 037.2972 322.9220 14.11121318100540
HUBBLE
1 20580U 90037B 11019.13656013 .00000481 00000-0 23886-4 0 7038
2 20580 028.4721 269.9148 0003108 336.0472 023.9942 15.01143351937234
ISS
1 25544U 98067A 11020.86512223 .00009632 00000-0 76387-4 0 6827
2 25544 051.6428 196.2115 0004490 201.0557 314.0403 15.72063951697714
CO-58
1 28895U 05043F 11019.69431497 .00000244 00000-0 60109-4 0 07818
2 28895 097.9878 261.6371 0017504 330.1414 029.8818 14.59996539278576
FALCON
1 30776U 07006E 11020.83927563 .00000604 00000-0 45789-4 0 47
2 30776 035.4321 162.4981 0001843 303.8067 056.2475 15.04071727212847
MAST
1 31126U 07012K 11019.63682982 .00000149 00000-0 44356-4 0 00642
2 31126 097.9118 055.1443 0093549 273.3565 085.6930 14.53665699199502
CAPE1
1 31130U 07012P 11019.55185013 .00000192 00000-0 54966-4 0 00861
2 31130 097.9143 052.0665 0101705 283.1641 075.8252 14.52281016199060
COMPASS
1 32787U 08021E 11019.29351840 .00000549 00000-0 75502-4 0 08879
2 32787 097.8700 085.7831 0014892 304.6560 055.3208 14.82115110147504
AAUSAT2
1 32788U 08021F 11019.61214415 .00000779 00000-0 10403-3 0 08774
2 32788 097.8684 086.2760 0014505 304.8113 055.1814 14.82276867147564
DO-64
1 32789U 08021G 11019.72595145 .00000282 00000-0 41658-4 0 08944
2 32789 097.8769 087.1415 0014660 302.0394 057.9406 14.82550321147588
CO-66
1 32791U 08021J 11019.21451238 .00000611 00000-0 83835-4 0 08786
2 32791 097.8699 085.6850 0015390 304.0069 055.9722 14.81860639147440
RS-30
1 32953U 08025A 11020.61115638 .00000010 00000-0 00000 0 0 4032
2 32953 082.5001 254.4752 0019279 351.1083 008.9650 12.43010391120755
TACSAT-3
1 35001U 09028A 11019.92579522 .00005304 00000-0 11582-3 0 05012
2 35001 040.4567 349.7627 0022377 190.5673 169.4676 15.44487517094128
PHARMSAT
1 35002U 09028B 11020.27701721 .00004318 00000-0 94393-4 0 4511
2 35002 040.4704 345.1460 0024585 196.9317 163.0680 15.44724721 94200
HAWKSAT1
1 35003U 09028C 11020.90950759 .00013539 00000-0 22674-3 0 4921
2 35003 040.4613 327.0113 0024417 227.0119 132.8649 15.51194989 94466
CP6
1 35004U 09028D 11019.93995825 .00016257 00000-0 25138-3 0 05026
2 35004 040.4598 329.2561 0023801 226.0213 133.8626 15.53320987094344
AEROCUB3
1 35005U 09028E 11006.09222617 .14049365 73043-5 82692-3 0 6103
2 35005 040.4461 021.7975 0025578 084.1677 280.7191 16.39196088 92544
METEOR-M
1 35865U 09049A 11020.72323613 .00000176 00000-0 10000-3 0 281
2 35865 098.7289 077.6198 0003260 091.2889 268.8623 14.21834173 69631
RS-38
1 35869U 09049E 11020.81123114 .00000177 00000-0 10000-3 0 426
2 35869 098.7271 077.7479 0005430 094.1076 266.0682 14.21998412 69654
